Simultaneous Nadir Overpasses (SNOs) Predictions

Prediction of SNOs between AQUA and NOAA-19 Satellite Orbit:

Table of predicted SNOs for the next 14.0 days since TLE Epoch: 11/9/2019
Index Date (AQUA) Time (AQUA) Lat,Lon (AQUA) SZA (AQUA ) Date (NOAA-19) Time (NOAA-19) Lat,Lon (NOAA-19) SZA (NOAA-19 ) Distance(km) Time Diff (sec)
1 11/11/2019 06:04:27 -80.15,-122.98 81.46 11/11/2019 06:03:18 -80.15,-122.93 81.44 1.21 69
2 11/11/2019 06:53:54 80.17, 44.47 98.58 11/11/2019 06:54:13 80.16, 44.49 98.57 0.59 19
3 11/13/2019 12:27:38 -80.16, 141.12 80.83 11/13/2019 12:27:40 -80.16, 141.11 80.83 0.31 2
4 11/15/2019 18:01:21 80.16,-122.34 99.77 11/15/2019 18:00:57 80.15,-122.29 99.76 1.98 24
5 11/15/2019 18:50:48 -80.17, 45.21 80.21 11/15/2019 18:52:01 -80.16, 45.13 80.24 2.14 73
6 11/17/2019 23:35:05 -80.16, -25.73 79.69 11/17/2019 23:34:23 -80.14, -25.61 79.70 2.92 42
7 11/18/2019 00:24:32 80.18, 141.73 100.36 11/18/2019 00:25:19 80.16, 141.84 100.32 3.27 47
8 11/20/2019 05:08:48 80.13, 71.07 100.81 11/20/2019 05:07:42 80.13, 70.90 100.84 3.26 66
9 11/20/2019 05:58:15 -80.14,-121.40 79.17 11/20/2019 05:58:44 -80.16,-121.31 79.17 2.75 29




NCC Satellite Simultaneous Nadir Overpasses (SNOs) Prediction Service
